Regional Weather Roundup
Issued by NWS

Home | Current Version | Previous Version | Graphics & Text | Print | Product List | Glossary On
Versions: 1 2 3 4 5 6 7 8 9 10 11 12 13 14 15 16 17 18 19 20 21 22 23 24 25 26 27 28 29 30 31 32 33 34 35 36 37 38 39 40 41 42 43 44 45 46 47 48 49 50
000
ASUS44 KMEG 030710
RWRTN
TENNESSEE HOURLY STATE WEATHER ROUNDUP
NATIONAL WEATHER SERVICE MEMPHIS TN
100 AM CST TUE MAR 03 2015

TNZ002-004-019-021-049-052-054-088>092-030800-
WEST TENNESSEE

CITY           SKY/WX    TMP DP  RH WIND       PRES   REMARKS
MEMPHIS INTL   DRZL/FOG  42  40  92 E6        30.17F VSB 1
NWS MEMPHIS      N/A     41 N/A N/A MISG        N/A
JACKSON        CLOUDY    45  38  76 S6        30.18F
DYERSBURG      CLOUDY    39  19  45 CALM      30.19F
UNION CITY     CLOUDY    36  28  75 CALM      30.16F
PARIS          CLOUDY    37  27  65 CALM      30.18F
LEXINGTON      CLOUDY    45  36  70 S7        30.18F
SAVANNAH       CLOUDY    43  43 100 CALM      30.19F
$$

TNZ008-025-027-028-033-062-065-066-030800-
NORTH MIDDLE TENNESSEE

CITY           SKY/WX    TMP DP  RH WIND       PRES   REMARKS
NASHVILLE      CLOUDY    44  31  60 CALM      30.21S
CLARKSVILLE    CLOUDY    39  29  67 E3        30.19F
SMYRNA         CLOUDY    43  33  67 CALM      30.22S
COOKEVILLE       N/A     43  36  75 CALM      30.18S
CROSSVILLE     CLOUDY    43  31  62 VRB3      30.19F
$$

TNZ061-075-076-078-094-096-097-030800-
SOUTH MIDDLE TENNESSEE

CITY           SKY/WX    TMP DP  RH WIND       PRES   REMARKS
FAYETTEVILLE   CLOUDY    43  39  87 SW3         N/A
TULLAHOMA      CLOUDY    43  37  81 CALM      30.20R
WINCHESTER     CLOUDY    46  41  81 S3        30.19S
MCMINNVILLE    CLOUDY    43  37  81 CALM      30.18R
COLUMBIA       CLOUDY    45  39  81 CALM      30.18F
SHELBYVILLE    CLOUDY    43  39  87 CALM      30.21R
$$

TNZ017-018-042-046-047-030800-
NORTHEAST TENNESSEE

CITY           SKY/WX    TMP DP  RH WIND       PRES   REMARKS
TRI CITIES     CLOUDY    34  29  82 CALM      30.22F
ELIZABETHTON   MOSUNNY   36  28  75 NE6       30.22F WCI  31
$$

TNZ012-013-036-069-073-074-030800-
CENTRAL EAST TENNESSEE

CITY           SKY/WX    TMP DP  RH WIND       PRES   REMARKS
KNOXVILLE      CLOUDY    41  37  86 E3        30.22F
OAK RIDGE      CLOUDY    42  33  70 CALM      30.24F
GATLINBURG     CLOUDY    37  36  93 CALM      30.21F
MORRISTOWN     CLOUDY    39  34  81 NE3       30.21F
$$

TNZ083-085-099-030800-
SOUTHEAST TENNESSEE

CITY           SKY/WX    TMP DP  RH WIND       PRES   REMARKS
CHATTANOOGA    CLOUDY    46  38  73 N5        30.24S
$$

SKY/WX REPORTED AS FAIR MEANS FEW OR NO CLOUDS BELOW
12 THOUSAND FEET.




USA.gov is the U.S. government's official web portal to all federal, state and local government web resources and services.